AN8_time,AN8_WT_10_Temp,AN8_WT_10_VWC,AN8_Pot_10_Soil_Water_Pot
03/03/2010,3.866666714,0.367187341,-24.23531239
04/03/2010,3.78124997,0.367282717,-21.95210207
05/03/2010,3.604166647,0.368327291,-19.78036916
06/03/2010,3.5,0.369122076,-17.73730675
07/03/2010,3.5,0.370007708,-15.79126467
08/03/2010,3.5,0.369826038,-15.37715483
09/03/2010,3.5,0.369439989,-15.23151392
10/03/2010,3.5,0.369439989,-15.18539359
11/03/2010,3.5,0.36882687,-15.16241237
12/03/2010,3.5,0.368236459,-15.1886515
13/03/2010,3.5,0.368236459,-15.0913112
14/03/2010,3.552083284,0.367260009,-15.01535537
15/03/2010,3.737500012,0.367260009,-14.99691937
16/03/2010,3.868750001,0.367214592,-15.01399187
17/03/2010,4.018749982,0.366169989,-15.0751453
18/03/2010,4.160416514,0.365397913,-15.15583279
19/03/2010,4.366666744,0.363990009,-15.37657332
20/03/2010,4.554166615,0.363513125,-15.42411977
21/03/2010,4.75000003,0.365829367,-15.0610434
22/03/2010,4.847916812,0.366169989,-14.80944296
23/03/2010,4.952083379,0.366238115,-14.75778125
24/03/2010,5.060416609,0.366169989,-14.72716914
25/03/2010,5.291666826,0.366011032,-14.68710423
26/03/2010,5.300000191,0.366169989,-14.63343863
27/03/2010,5.441666722,0.366169989,-14.58141951
28/03/2010,5.53124997,0.366169989,-14.55047276
29/03/2010,5.599999905,0.366169989,-14.52593283
30/03/2010,5.620833218,0.365783951,-14.53318119
31/03/2010,5.699999809,0.365420621,-14.56277829
01/04/2010,5.699999809,0.366169989,-14.50899525
02/04/2010,5.616666555,0.366169989,-14.48960946
03/04/2010,5.454166681,0.366169989,-14.42481407
04/04/2010,5.400000095,0.366624164,-14.30387823
05/04/2010,5.400000095,0.367260009,-14.0196026
06/04/2010,5.456250042,0.367260009,-13.96193465
07/04/2010,5.54583329,0.367260009,-13.97255758
08/04/2010,5.697916528,0.367282717,-13.80981817
09/04/2010,5.839583486,0.367350842,-13.70610793
10/04/2010,6,0.367282717,-13.72401692
11/04/2010,6.187499861,0.367260009,-13.70504818
12/04/2010,6.350000143,0.367214592,-13.74410699
13/04/2010,6.5,0.366215407,-13.77898365
14/04/2010,6.585416585,0.365534162,-13.8140827
15/04/2010,6.656249851,0.364852918,-13.84989317
16/04/2010,6.699999809,0.364262506,-13.82511717
17/04/2010,6.731249928,0.363376873,-13.95644581
18/04/2010,6.806250185,0.362286869,-14.14357833
19/04/2010,6.900000095,0.361923539,-14.10533251
20/04/2010,6.900000095,0.361809999,-14.1201974
21/04/2010,6.900000095,0.361809999,-14.1092025
22/04/2010,6.841666818,0.361809999,-14.14406747
23/04/2010,6.745833317,0.361719166,-14.13231599
24/04/2010,6.702083151,0.361446669,-14.1058173
25/04/2010,6.839583486,0.361423961,-14.0960621
26/04/2010,6.991666675,0.361696458,-14.03145703
27/04/2010,7.28125002,0.361809999,-13.9796569
28/04/2010,7.462500006,0.360333964,-13.96483922
29/04/2010,7.731249998,0.360720009,-14.10751065
30/04/2010,7.991666804,0.360606465,-14.18734906
01/05/2010,8.172916631,0.360538339,-14.23678078
02/05/2010,8.264583508,0.36001605,-14.23916062
03/05/2010,8.300000191,0.360720009,-14.19458727
04/05/2010,8.252083341,0.360720009,-14.1566868
05/05/2010,8.199999809,0.360538339,-14.14261681
06/05/2010,8.183333238,0.359675406,-14.20927785
07/05/2010,8.247916659,0.359652697,-14.17309254
08/05/2010,8.300000191,0.359675406,-14.15898909
09/05/2010,8.300000191,0.359629989,-14.15912467
10/05/2010,8.356249869,0.359629989,-14.21816029
11/05/2010,8.366666297,0.358789782,-14.23292621
12/05/2010,8.399999619,0.359539156,-14.2177068
13/05/2010,8.310416798,0.35913041,-14.26010754
14/05/2010,8.26666673,0.358562707,-14.23558295
15/05/2010,8.199999809,0.358539999,-14.21238075
16/05/2010,8.264583389,0.358539999,-14.21661041
17/05/2010,8.306249956,0.358585415,-14.16045841
18/05/2010,8.443749785,0.358653539,-14.06916086
19/05/2010,8.552083532,0.358812496,-14.00747859
20/05/2010,8.683333397,0.35876708,-13.94757795
21/05/2010,8.895833234,0.358744372,-13.93873433
22/05/2010,9.150000095,0.358539999,-13.91364714
23/05/2010,9.42083327,0.358449166,-13.94660385
24/05/2010,9.662500103,0.357450008,-14.11926758
25/05/2010,9.937499801,0.356541658,-14.19068921
26/05/2010,10.08333365,0.356359988,-14.18161486
27/05/2010,10.10000038,0.356201032,-14.21192022
28/05/2010,10.08125031,0.355360831,-14.17363457
29/05/2010,10,0.355269998,-14.11810472
30/05/2010,10,0.355179166,-14.09568572
31/05/2010,10,0.354793128,-13.99790005
01/06/2010,10,0.354202716,-14.06474948
02/06/2010,10.03958348,0.354134591,-14.01543554
03/06/2010,10.08541691,0.352749369,-13.96231888
04/06/2010,10.2125,0.352408738,-13.90717945
05/06/2010,10.37291648,0.352408744,-13.84921738
06/06/2010,10.55208353,0.351432295,-13.934057
07/06/2010,10.74166665,0.350910008,-14.24251495
08/06/2010,10.86249983,0.350910008,-14.37751383
09/06/2010,10.9645832,0.350910008,-14.58776504
10/06/2010,11,0.350910008,-14.79054042
11/06/2010,11,0.35086459,-14.95696606
12/06/2010,11,0.35068292,-15.23019916
13/06/2010,11.08333365,0.349661031,-15.60254669
14/06/2010,11.10625035,0.348888955,-16.19403338
15/06/2010,11.19999981,0.34870729,-16.86790562
16/06/2010,11.19999981,0.348389376,-17.4991742
17/06/2010,11.19999981,0.347734789,-18.23041725
18/06/2010,11.27708344,0.347640008,-19.11811407
19/06/2010,11.4291664,0.347640008,-20.143894
20/06/2010,11.5,0.347026872,-21.36659467
21/06/2010,11.5,0.346254782,-22.90867074
22/06/2010,11.47083336,0.344778748,-24.80213964
23/06/2010,11.61666695,0.344960419,-26.68423728
24/06/2010,11.74374998,0.344347299,-28.5995096
25/06/2010,11.8687498,0.343393531,-30.96692431
26/06/2010,12.01666673,0.342621452,-32.8002522
27/06/2010,12.13541685,0.342144581,-34.81249293
28/06/2010,12.27083339,0.341213547,-37.15202459
29/06/2010,12.39791642,0.339419572,-39.26770703
30/06/2010,12.56250024,0.340009987,-41.04562879
01/07/2010,12.72708327,0.340009987,-42.07190466
02/07/2010,12.85833319,0.34014624,-37.90125076
03/07/2010,13.01458339,0.340918337,-30.35848224
04/07/2010,13.12291692,0.341100007,-27.54665128
05/07/2010,13.19999981,0.341100007,-27.69035923
06/07/2010,13.19999981,0.341100007,-28.56039202
07/07/2010,13.19999981,0.341100007,-28.57305694
08/07/2010,13.19999981,0.341100007,-27.75795694
09/07/2010,13.22916659,0.341145424,-27.42616538
10/07/2010,13.30000019,0.341100007,-25.97476395
11/07/2010,13.34583326,0.340804795,-24.65311984
12/07/2010,13.35833311,0.340759379,-25.3601439
13/07/2010,13.5,0.341781251,-24.18363293
14/07/2010,13.5,0.341258964,-16.5458224
15/07/2010,13.5,0.342394371,-12.61244647
16/07/2010,13.5,0.345164791,-12.45596977
17/07/2010,13.5,0.349365833,-12.32711252
18/07/2010,13.5,0.350910008,-12.20951615
19/07/2010,13.5,0.350910008,-12.12827037
20/07/2010,13.5,0.353430622,-11.99427944
21/07/2010,13.5708336,0.355905833,-11.93251556
22/07/2010,13.72708325,0.359016875,-11.9083218
23/07/2010,13.76250019,0.360720009,-11.89188429
24/07/2010,13.75625002,0.359925205,-11.81320939
25/07/2010,13.69999981,0.357995003,-11.70969466
26/07/2010,13.69999981,0.35724563,-11.67121804
27/07/2010,13.69999981,0.356405406,-11.60376092
28/07/2010,13.7854168,0.356359988,-11.53391117
29/07/2010,13.82916669,0.356359988,-11.48170837
30/07/2010,13.89999962,0.356314572,-11.4098836
31/07/2010,13.86249963,0.355451663,-11.39911876
01/08/2010,13.89999962,0.355519788,-11.35383155
02/08/2010,13.89999962,0.356087491,-11.32679937
03/08/2010,13.89999962,0.355928534,-11.27461
04/08/2010,13.89999962,0.355269998,-11.27542015
05/08/2010,13.91249967,0.355269998,-11.21287308
06/08/2010,13.89999962,0.355269998,-11.16048203
07/08/2010,13.89999962,0.355269998,-11.09298531
08/08/2010,13.89999962,0.355292706,-11.04615863
09/08/2010,13.93541642,0.355269998,-11.02283065
10/08/2010,14,0.35524729,-10.82866498
11/08/2010,13.94583327,0.35524729,-10.60018704
12/08/2010,13.89999962,0.355179166,-10.57718581
13/08/2010,13.89999962,0.355269998,-10.6141933
14/08/2010,13.83749998,0.355338123,-10.79469782
15/08/2010,13.80000019,0.356201032,-10.7475181
16/08/2010,13.80000019,0.356359988,-10.74028047
17/08/2010,13.80000019,0.356019367,-10.72117388
18/08/2010,13.80000019,0.355338123,-10.7284502
19/08/2010,13.88124973,0.355269998,-10.70223029
20/08/2010,13.85208303,0.354656873,-10.65153354
21/08/2010,13.89583298,0.355338123,-10.57994578
22/08/2010,13.9041663,0.355292706,-10.44855376
23/08/2010,14,0.355292706,-10.44720324
24/08/2010,13.98958329,0.357086663,-10.56961534
25/08/2010,13.89999962,0.360356669,-10.53045468
26/08/2010,13.80624994,0.360084175,-10.52920755
27/08/2010,13.80000019,0.35997062,-10.55186842
28/08/2010,13.71666654,0.359675406,-10.53483115
29/08/2010,13.60625013,0.358585409,-10.53731618
30/08/2010,13.55000033,0.359153116,-10.55630505
31/08/2010,13.47916659,0.359698115,-10.56708395
01/09/2010,13.35833319,0.358926037,-10.54118681
02/09/2010,13.24583332,0.358585415,-10.52603211
03/09/2010,13.16249981,0.357858748,-10.5023823
04/09/2010,13.19999981,0.358539999,-10.464897
05/09/2010,13.19999981,0.358539999,-10.28173753
06/09/2010,13.19999981,0.357586256,-10.25699914
07/09/2010,13.26041671,0.356405406,-10.25171606
08/09/2010,13.26250019,0.356359988,-10.4373982
09/09/2010,13.37083312,0.356359988,-10.46330529
10/09/2010,13.39999962,0.356405406,-10.42393482
11/09/2010,13.47916659,0.357631662,-10.38860385
12/09/2010,13.53958348,0.361764582,-10.41472948
13/09/2010,13.60000038,0.362354994,-10.38679868
14/09/2010,13.60000038,0.361809999,-10.38193733
15/09/2010,13.66874999,0.360765424,-10.3922499
16/09/2010,13.58125027,0.359380205,-10.3879872
17/09/2010,13.51458353,0.359425621,-10.38376478
18/09/2010,13.4395831,0.360084164,-10.3656776
19/09/2010,13.28333338,0.35913041,-10.3338811
20/09/2010,13.18124992,0.358562707,-10.33981558
21/09/2010,13.06250038,0.358721657,-10.33148162
22/09/2010,13.13750017,0.359175826,-10.31658789
23/09/2010,13.19999981,0.35878979,-10.33704348
24/09/2010,13.24374998,0.365261668,-10.400717
25/09/2010,13.26041671,0.367169174,-10.40381825
26/09/2010,13.14375013,0.366419785,-10.39103001
27/09/2010,12.96874988,0.365829367,-10.37829578
28/09/2010,12.84374994,0.365488745,-10.36985095
29/09/2010,12.80000019,0.36494375,-10.36322467
30/09/2010,12.80000019,0.36616999,-10.3879872
01/10/2010,12.80000019,0.36458042,-10.36747384
02/10/2010,12.80000019,0.364875626,-10.38017684
03/10/2010,12.75208348,0.363876461,-10.35842578
04/10/2010,12.69999981,0.366079157,-10.35965886
05/10/2010,12.69999981,0.36483021,-10.3458209
06/10/2010,12.68541656,0.365261667,-10.35542758
07/10/2010,12.56383015,0.367074474,-10.40033843
08/10/2010,12.60000038,0.367260009,-10.38998997
09/10/2010,12.52916678,0.367260009,-10.35058864
10/10/2010,12.53750014,0.367260009,-10.34403785
11/10/2010,12.60000038,0.367260009,-10.34523086
12/10/2010,12.60000038,0.367169174,-10.35542758
13/10/2010,12.52916678,0.366374368,-10.33683948
14/10/2010,12.47083322,0.365397913,-10.3464994
15/10/2010,12.39999962,0.364625836,-10.37769703
16/10/2010,12.3104168,0.364852918,-10.39407291
17/10/2010,12.26041671,0.364648545,-10.4062896
18/10/2010,12.13333352,0.363558543,-10.36864458
19/10/2010,11.99374998,0.362536659,-10.38859487
20/10/2010,11.87708308,0.36360396,-10.43799247
21/10/2010,11.70000009,0.363172494,-10.40378233
22/10/2010,11.47083322,0.362196037,-10.38013661
23/10/2010,11.32708337,0.361537501,-10.39890752
24/10/2010,11.26458339,0.362854583,-10.4238806
25/10/2010,11.14166679,0.364739377,-10.43249637
26/10/2010,10.92291655,0.363195208,-10.36511898
27/10/2010,10.72916659,0.361968956,-10.36023094
28/10/2010,10.69999981,0.362877285,-10.37832707
29/10/2010,10.69999981,0.362491244,-10.33447099
30/10/2010,10.76041671,0.362173329,-10.35481099
31/10/2010,10.80000019,0.363694792,-10.35722824
01/11/2010,10.80000019,0.365284372,-10.35184836
02/11/2010,10.80000019,0.364239799,-10.33028424
03/11/2010,10.80000019,0.370189382,-10.37290714
04/11/2010,10.72708325,0.371824373,-10.3633583
05/11/2010,10.69999981,0.37270999,-10.34880575
06/11/2010,10.80000019,0.37270999,-10.37226375
07/11/2010,10.79583351,0.371983329,-10.37468998
08/11/2010,10.66458335,0.367078334,-10.34343024
09/11/2010,10.50208334,0.370938752,-10.37045417
10/11/2010,10.34583326,0.372119578,-10.40742842
11/11/2010,10.17500007,0.369212918,-10.38867561
12/11/2010,9.968749881,0.370302917,-10.36742926
13/11/2010,9.839583298,0.371642708,-10.38801865
14/11/2010,9.762500048,0.371892497,-10.39828628
15/11/2010,9.616666754,0.373255,-10.42141835
16/11/2010,9.529166778,0.373845426,-10.43366647
17/11/2010,9.362499833,0.373800009,-10.41468889
18/11/2010,9.222916563,0.373663757,-10.40618602
19/11/2010,9.114583631,0.373822718,-10.46380822
20/11/2010,9.100000381,0.373936258,-10.45579555
21/11/2010,9.100000381,0.376456881,-10.46564929
22/11/2010,9.100000381,0.377228967,-10.46195358
23/11/2010,9.041666826,0.377228967,-10.46873738
24/11/2010,9,0.37707001,-10.47058751
25/11/2010,8.924999714,0.37707001,-10.4798882
26/11/2010,8.768750052,0.376547708,-10.50410827
27/11/2010,8.612500191,0.37634333,-10.51287043
28/11/2010,8.443749785,0.37597999,-10.51474804
29/11/2010,8.275000036,0.37597999,-10.54866952
30/11/2010,8.14166681,0.376570417,-10.59110773
01/12/2010,8.012500068,0.37707001,-10.59111702
02/12/2010,7.879166782,0.37707001,-10.58028698
03/12/2010,7.76666673,0.376933757,-10.57711124
04/12/2010,7.656249851,0.376525,-10.58155727
05/12/2010,7.51458329,0.376366051,-10.60961068
06/12/2010,7.450000048,0.37707001,-10.60450161
07/12/2010,7.337500155,0.37707001,-10.60833108
08/12/2010,7.218749881,0.37707001,-10.63399386
09/12/2010,7.118749887,0.378182714,-10.62950583
10/12/2010,6.989583313,0.38147541,-10.6102552
11/12/2010,6.904166758,0.380657924,-10.61089973
12/12/2010,6.920833409,0.38034001,-10.61089965
13/12/2010,7,0.38034001,-10.60898018
14/12/2010,6.933333337,0.378932092,-10.595577
15/12/2010,6.92291674,0.380067505,-10.58918834
16/12/2010,6.927083403,0.378228124,-10.61179306
17/12/2010,6.983333349,0.376797496,-10.68774589
18/12/2010,6.856250137,0.37597999,-10.68318673
19/12/2010,6.660416534,0.37597999,-10.67474143
20/12/2010,6.42291674,0.37597999,-10.70144236
21/12/2010,6.206249932,0.37597999,-10.70799224
22/12/2010,5.987500012,0.376138951,-10.70733339
23/12/2010,5.768750101,0.376297925,-10.70405845
24/12/2010,5.637499869,0.377115426,-10.73096025
25/12/2010,5.495833337,0.377819378,-10.71457591
26/12/2010,5.354166806,0.377410632,-10.67149031
27/12/2010,5.229166587,0.376729378,-10.67277461
28/12/2010,5.120833218,0.377705835,-10.68385025
29/12/2010,4.993749976,0.382588121,-10.7158405
30/12/2010,4.933333397,0.38361001,-10.70669377
31/12/2010,4.864583462,0.38361001,-10.70146159
01/01/2011,4.800000191,0.38361001,-10.698177
02/01/2011,4.812500179,0.38361001,-10.70536649
03/01/2011,4.900000095,0.382724373,-10.70733331
04/01/2011,4.900000095,0.381361876,-10.68062288
05/01/2011,4.868750095,0.381134794,-10.69621019
06/01/2011,4.979166687,0.38143,-10.6916701
07/01/2011,5,0.381316459,-10.72636761
08/01/2011,5,0.380998546,-10.68316299
09/01/2011,4.964583367,0.382247496,-10.66693115
10/01/2011,4.900000095,0.382769787,-10.65334864
11/01/2011,4.816666842,0.383110418,-10.6417282
12/01/2011,4.850000143,0.382906039,-10.65010703
13/01/2011,4.900000095,0.38340563,-10.62822153
14/01/2011,5.020833313,0.383496466,-10.63851974
15/01/2011,5.268750037,0.38220208,-10.58675041
16/01/2011,5.554166585,0.38186145,-10.59114508
17/01/2011,5.893750081,0.382678951,-10.60899436
18/01/2011,6.15416652,0.38270166,-10.5968473
19/01/2011,6.239583294,0.383451049,-10.61608891
20/01/2011,6.203999825,0.382977799,-10.65226625
21/01/2011,6.168749839,0.38251999,-10.66891221
22/01/2011,5.991666675,0.38251999,-10.63401278
23/01/2011,5.808333476,0.382497282,-10.61667681
24/01/2011,5.699999809,0.381770622,-10.60961068
25/01/2011,5.722916563,0.381180211,-10.59366691
26/01/2011,5.816666842,0.381202919,-10.60705614
27/01/2011,5.925000072,0.38143,-10.60897088
28/01/2011,6,0.38143,-10.61606057
29/01/2011,6,0.381361876,-10.64369496
30/01/2011,5.947916716,0.381112086,-10.60642564
31/01/2011,5.8145835,0.380930421,-10.60132122
01/02/2011,5.699999809,0.38070334,-10.58220172
02/02/2011,5.699999809,0.380498967,-10.5866524
03/02/2011,5.747916778,0.379091047,-10.57720443
04/02/2011,5.912500083,0.381021254,-10.5392585
05/02/2011,6.041666627,0.383201256,-10.56065806
06/02/2011,6.260416667,0.383496466,-10.57966578
07/02/2011,6.441666722,0.382678957,-10.55628177
08/02/2011,6.583333254,0.383564593,-10.55376446
09/02/2011,6.599999905,0.382860621,-10.52478959
10/02/2011,6.568749905,0.381770616,-10.5266903
11/02/2011,6.697916478,0.381611665,-10.52917534
12/02/2011,6.699999809,0.382906041,-10.52540624
13/02/2011,6.699999809,0.381566249,-10.52165103
14/02/2011,6.699999809,0.382270201,-10.53170186
15/02/2011,6.699999809,0.381475416,-10.55500213
16/02/2011,6.624999881,0.381997703,-10.56382451
17/02/2011,6.599999905,0.382588116,-10.55122399
18/02/2011,6.599999905,0.382542699,-10.57087634
19/02/2011,6.599999905,0.382383742,-10.58923018
20/02/2011,6.599999905,0.382588116,-10.57965183
21/02/2011,6.491666645,0.381520826,-10.5764761
22/02/2011,6.5,0.38251999,-10.58226228
23/02/2011,6.395833373,0.382133956,-10.57340292
24/02/2011,6.524999976,0.383587301,-10.55184513
25/02/2011,6.679166545,0.383087709,-10.53043163
26/02/2011,6.902083427,0.382361034,-10.53545241
27/02/2011,7.102083236,0.38288333,-10.52297191
28/02/2011,7.199999809,0.38361001,-10.54048707
01/03/2011,7.199999809,0.38361001,-10.5481317
02/03/2011,7.131249875,0.383405631,-10.59443273
03/03/2011,7.033333302,0.382656243,-10.6129365
04/03/2011,6.820833464,0.381520827,-10.5682565
05/03/2011,6.722916802,0.381429994,-10.56572529
06/03/2011,6.800000191,0.381884163,-10.56329638
07/03/2011,6.800000191,0.381520833,-10.60972784
08/03/2011,6.739583294,0.381021254,-10.57730218
09/03/2011,6.631249875,0.380567091,-10.58604985
10/03/2011,6.518749982,0.380498967,-10.56700486
11/03/2011,6.5,0.381384584,-10.5809594
12/03/2011,6.5,0.38342834,-10.57478009
13/03/2011,6.5,0.383292088,-10.55695403
14/03/2011,6.554166585,0.384359378,-10.59119624
15/03/2011,6.599999905,0.38397334,-10.55454401
16/03/2011,6.597916573,0.383632718,-10.55558628
17/03/2011,6.599999905,0.38361001,-10.55060267
18/03/2011,6.6395832,0.383632718,-10.57020376
19/03/2011,6.699999809,0.383950632,-10.55632361
20/03/2011,6.620833218,0.382860621,-10.54553095
21/03/2011,6.631249875,0.382588116,-10.53676873
22/03/2011,6.737499952,0.383087709,-10.53364412
23/03/2011,6.912500083,0.382974165,-10.50859519
24/03/2011,7.120833218,0.38204312,-10.50674973
25/03/2011,7.302083443,0.38143,-10.51617493
26/03/2011,7.522916645,0.380794172,-10.50171518
27/03/2011,7.616666555,0.38034001,-10.49368882
28/03/2011,7.699999809,0.38034001,-10.47260141
29/03/2011,7.76666673,0.378659581,-10.46886025
30/03/2011,7.806250185,0.37816,-10.45892902
31/03/2011,7.900000095,0.37779667,-10.43800153
01/04/2011,7.977083355,0.37816,-10.4038319
02/04/2011,8.1270835,0.378001043,-10.39345183
03/04/2011,8.262499988,0.377501459,-10.3959048
04/04/2011,8.443749785,0.377683129,-10.381446
05/04/2011,8.5,0.377138134,-10.32612375
06/04/2011,8.544444614,0.37795815,-10.30313142
13/04/2011,6.795833011,NaN,-10.33088287
14/04/2011,9.399999619,0.370530009,-10.3043443
15/04/2011,9.399999619,0.370530009,-10.28877286
16/04/2011,9.412499666,0.370530009,-10.27123598
17/04/2011,9.466666669,0.36982605,-10.28075894
18/04/2011,9.502083341,0.369780621,-10.27292295
19/04/2011,9.600000381,0.368486248,-10.25222848
20/04/2011,9.62708356,0.367918545,-10.25197681
21/04/2011,9.699999809,0.367260009,-10.22893033
22/04/2011,9.691666583,0.366556038,-10.03841841
23/04/2011,9.587500195,0.366169989,-9.90331918
24/04/2011,9.635416845,0.366169989,-9.840800325
25/04/2011,9.71666654,0.366442494,-9.80650574
26/04/2011,9.791666826,0.366714999,-9.788474282
27/04/2011,9.793750008,0.366169989,-9.78861477
28/04/2011,9.699999809,0.365375205,-9.781522075
29/04/2011,9.699999809,0.364148966,-9.793501993
30/04/2011,9.664583147,0.363172506,-9.784972668
01/05/2011,9.664583147,0.362377699,-9.7795735
02/05/2011,9.699999809,0.362604783,-9.809011797
03/05/2011,9.699999809,0.361832707,-9.872050265
04/05/2011,9.699999809,0.361809999,-9.979394694
05/05/2011,9.631250004,0.361128749,-9.967460851
06/05/2011,9.600000381,0.36167375,-9.999711752
07/05/2011,9.670833309,0.35890333,-10.11913478
08/05/2011,9.800000012,0.357767922,-10.17601736
09/05/2011,9.970833222,0.357313756,-10.2765379
10/05/2011,10.13750017,0.356496241,-10.38078016
11/05/2011,10.24374998,0.356359988,-10.44854013
12/05/2011,10.3208334,0.356359988,-10.49923476
13/05/2011,10.39999962,0.356359988,-10.63780967
14/05/2011,10.39999962,0.356314572,-10.81224734
15/05/2011,10.39999962,0.355905826,-10.99481835
16/05/2011,10.39999962,0.355338123,-11.11731176
17/05/2011,10.42083317,0.354588748,-11.3051586
18/05/2011,10.5250001,0.355269998,-11.6092848
19/05/2011,10.60833367,0.355156458,-11.87342638
20/05/2011,10.69999981,0.354293549,-12.11964339
21/05/2011,10.66458315,0.354180008,-12.25099411
22/05/2011,10.69999981,0.353634998,-12.39539715
23/05/2011,10.73124993,0.353089988,-12.67827549
24/05/2011,10.79791685,0.353089988,-12.86126631
25/05/2011,10.67291651,0.352295204,-12.97473303
26/05/2011,10.69999981,0.351999998,-13.03178646
27/05/2011,10.7145832,0.351046257,-13.16449948
28/05/2011,10.80000019,0.350910008,-13.29879568
29/05/2011,10.80000019,0.350910008,-13.41258917
30/05/2011,10.84166662,0.35068292,-13.65114127
31/05/2011,10.89999962,0.349842697,-14.06047293
01/06/2011,10.89999962,0.349774572,-14.60528187
02/06/2011,10.95833317,0.348798122,-15.52508448
03/06/2011,11.04583351,0.348389376,-16.91746537
04/06/2011,11.22083336,0.347640008,-18.79404402
05/06/2011,11.39374971,0.347481046,-21.02392463
06/06/2011,11.5,0.346708949,-23.28076681
07/06/2011,11.49166663,0.346254782,-25.51980714
08/06/2011,11.5,0.345459998,-27.86016766
09/06/2011,11.5,0.345096668,-30.27267853
10/06/2011,11.5,0.344370008,-32.42164985
11/06/2011,11.5,0.343893124,-34.46503075
12/06/2011,11.5,0.343279988,-35.81035344
13/06/2011,11.39999962,0.342712284,-36.94692524
14/06/2011,11.43749976,0.342189997,-38.19751755
15/06/2011,11.51458339,0.342167289,-39.23441211
16/06/2011,11.63750017,0.341417921,-40.53193076
17/06/2011,11.76458339,0.340827502,-41.69172645
18/06/2011,11.8687498,0.340009987,-43.26040514
19/06/2011,11.94583313,0.340009987,-44.54738752
20/06/2011,12.02708344,0.339964571,-45.73504074
21/06/2011,12.11250031,0.339714782,-46.71018211
22/06/2011,12.21874988,0.339351452,-47.68418113
23/06/2011,12.26666685,0.338556661,-48.26089263
24/06/2011,12.39999962,0.33937416,-49.07258836
25/06/2011,12.36458296,0.338579369,-49.52027082
26/06/2011,12.49166663,0.339328744,-49.77777712
27/06/2011,12.58333353,0.339283327,-50.42378497
28/06/2011,12.7854166,0.339419576,-51.118035
29/06/2011,12.93958326,0.338942699,-52.15033992
30/06/2011,13.10000038,0.33912437,-53.32569695
01/07/2011,13.10000038,0.338942705,-54.21411419
02/07/2011,13.10000038,0.338874581,-55.12900019
03/07/2011,13.10000038,0.33828417,-56.43268847
04/07/2011,13.14791677,0.337761881,-57.71509536
05/07/2011,13.19999981,0.336762696,-58.99858904
06/07/2011,13.27916678,0.336649155,-60.44332584
07/07/2011,13.33124981,0.3356727,-61.54691744
08/07/2011,13.4020831,0.336240408,-62.3336223
09/07/2011,13.5,0.33585437,-63.24728402
10/07/2011,13.52916678,0.335808954,-63.73587362
11/07/2011,13.56250038,0.334991456,-64.88765653
12/07/2011,13.65416674,0.335649997,-65.8663915
13/07/2011,13.69999981,0.335559164,-66.7943759
14/07/2011,13.66249981,0.334650839,-68.03510968
15/07/2011,13.61250031,0.334560007,-67.71768204
16/07/2011,13.64375013,0.334560007,-67.4408741
17/07/2011,13.69999981,0.334560007,-66.10289113
18/07/2011,13.73333327,0.334560007,-64.9857049
19/07/2011,13.80000019,0.334560007,-64.14877256
20/07/2011,13.76250005,0.33578625,-63.30313953
21/07/2011,13.58958368,0.337875423,-57.06754716
22/07/2011,13.5,0.338011672,-52.45010463